Regional Weather Roundup
Issued by NWS Sioux Falls, SD

Home | Current Version | Previous Version | Text Only | Print | Product List | Glossary On
Versions: 1 2 3 4 5 6 7 8 9 10 11 12 13 14 15 16 17 18 19 20 21 22 23 24 25 26 27 28 29 30 31 32 33 34 35 36 37 38 39 40 41 42 43 44 45 46 47 48 49 50
000
ASUS43 KFSD 240710
RWRFSD

WEATHER ROUNDUP FOR SE SOUTH DAKOTA/SW MINNESOTA/NW IOWA
NATIONAL WEATHER SERVICE SIOUX FALLS SD
200 AM CDT FRI OCT 24 2014

NOTE: "FAIR" INDICATES FEW OR NO CLOUDS BELOW 12,000 FEET WITH NO
SIGNIFICANT WEATHER AND OR OBSTRUCTIONS TO VISIBILITY.


SDZ038>040-050-052>070-240800-
SOUTHEAST SOUTH DAKOTA

CITY           SKY/WX    TMP DP  RH WIND       PRES   REMARKS
CHAMBERLAIN    MOCLDY    49  38  65 W3        29.85R
HURON          MOCLDY    50  46  86 SE6       29.83F
MADISON        FAIR      48  48 100 S7        29.88S
MITCHELL       MOCLDY    47  46  97 SE3       29.84F
SIOUX FALLS    MOCLDY    55  49  80 S12       29.88F
WINNER         FAIR      54  35  48 SW8       29.88R
YANKTON        PTCLDY    61  54  77 S9        29.89S
$$

MNZ071-072-080-081-089-090-097-098-240800-
SOUTHWEST MINNESOTA

CITY           SKY/WX    TMP DP  RH WIND       PRES   REMARKS
FAIRMONT       PTCLDY    45  37  76 S9        29.96F
JACKSON        PTCLDY    52  41  66 S7        29.95F
LUVERNE        PTCLDY    48  43  81 S5        29.91F
MARSHALL       CLEAR     55  43  62 SW16      29.88S
MONTEVIDEO     CLEAR     50  45  81 S7        29.88F
PIPESTONE      PTCLDY    50  45  81 S9        29.90S
REDWOOD FALLS  MOCLDY    49  42  77 S7        29.91F
TRACY          PTCLDY    56  45  66 S13       29.90F
WINDOM         PTCLDY    50  43  76 S6        29.94F
WORTHINGTON    PTCLDY    50  43  76 S13       29.94F
$$

IAZ001>003-012>014-020>022-031-032-NEZ013-014-SDZ071-240800-
NORTHWEST IOWA

CITY           SKY/WX    TMP DP  RH WIND       PRES   REMARKS
CHEROKEE       PTCLDY    47  46  98 CALM      29.96F
DENISON        PTCLDY    54  48  82 S5        29.98S
ESTHERVILLE    PTCLDY    45  41  86 S8        29.96F
LE MARS        PTCLDY    55  48  76 S9        29.94S
ORANGE CITY    PTCLDY    54  46  76 S7        29.94S
SHELDON        PTCLDY    48  45  87 SE3       29.93F
SIOUX CITY     PTCLDY    50  47  89 SE7       29.94F
SPENCER        MOCLDY    47  42  83 SE7       29.96F
STORM LAKE     PTCLDY    48  45  87 S9        29.98S
$$

ABBREVIATIONS USED IN REMARKS
   TC - TEMPERATURE IN CELSIUS
  WCI - WIND CHILL INDEX
   HX - HEAT INDEX
  VSB - VISIBILITY




USA.gov is the U.S. government's official web portal to all federal, state and local government web resources and services.